sat.trackr.live / text

‹ back to catalog

STARLINK-5192

NORAD 54074 · 2022-136Z

PAYLOAD ACTIVE UNKNOWN

§ Identity

Operator
Country
US
Launch date
2022-10-20
Launch site
AFETR
Launch vehicle
Mass (kg)
RCS (m²)

Purposes: comms

External: N2YO · Heavens-Above · Gunter

§ Orbital elements

Epoch: 2026-05-25T00:38:02.840064Z

Period
95.44 min
Inclination
53.2130°
Eccentricity
0.0001583
Mean motion
15.08836924 rev/d
Perigee alt
538.7 km
Apogee alt
540.8 km
Semi-major
6,917.9 km
B*
2.6386e-5
RAAN
1.0459°
Arg perigee
89.7850°
Mean anomaly
270.3324°
Rev number
19,837

§ Raw data

STARLINK-51921 54074U 22136Z   26145.02642176  .00000132  00000+0  26386-4 0  99942 54074  53.2130   1.0459 0001583  89.7850 270.3324 15.08836924198374

JSON: /api/v1/satellites/54074 · /tle

For live sub-satellite position, see the globe view (requires WebGL).

§ Visibility from observer

Set your observer location to see the next 7 days of passes ≥ 10°. The values pass through the URL so the page stays shareable.

No JS? Fill the form by hand. The geolocation button needs JavaScript.